THY3RF LTFM-EDDS

Flight info

Callsign THY3RF
Flight time 2h 25m
Altitude 34000
Route VADEN1E/36 VADEN N618 BAKLO DCT XANEX DCT UTEKA DCT BABIT DCT PIDON DCT GOTAR DCT TITIG L173 MAH/N0365F240 L173 DODIL T127 TEKSI TEKSI5A
Aircraft B738/M-SDE2E3FGHIRWXY/LB1

Departure

Time 2026-05-01 10:22
Airport İstanbul Airport (LTFM)

Arrival

Time 2026-05-01 12:48
Airport Stuttgart Airport (EDDS)
Time Latitude Longitude Altitude Speed Heading
2026-05-01 09:40 41.27558 28.74407 333 ft 0 kts 179°
2026-05-01 10:10 41.27560 28.74407 333 ft 2 kts 179°
2026-05-01 10:11 41.27585 28.74403 329 ft 4 kts 159°
2026-05-01 10:11 41.27606 28.74385 329 ft 4 kts 120°
2026-05-01 10:11 41.27612 28.74364 331 ft 0 kts 89°
2026-05-01 10:15 41.27612 28.74391 332 ft 6 kts 88°
2026-05-01 10:15 41.27613 28.74464 333 ft 10 kts 88°
2026-05-01 10:15 41.27614 28.74571 333 ft 13 kts 88°
2026-05-01 10:16 41.27615 28.74707 333 ft 16 kts 89°
2026-05-01 10:16 41.27619 28.74855 333 ft 17 kts 90°
2026-05-01 10:16 41.27623 28.75206 331 ft 15 kts 88°
2026-05-01 10:17 41.27611 28.75334 332 ft 15 kts 129°
2026-05-01 10:17 41.27355 28.75365 331 ft 23 kts 178°
2026-05-01 10:17 41.27180 28.75371 329 ft 27 kts 179°
2026-05-01 10:18 41.26809 28.75377 332 ft 26 kts 177°
2026-05-01 10:18 41.26655 28.75382 333 ft 18 kts 179°
2026-05-01 10:18 41.26557 28.75382 333 ft 14 kts 176°
2026-05-01 10:19 41.26485 28.75386 333 ft 0 kts 179°
2026-05-01 10:20 41.26479 28.75386 333 ft 2 kts 179°
2026-05-01 10:20 41.26447 28.75393 331 ft 7 kts 157°
2026-05-01 10:20 41.26424 28.75474 332 ft 13 kts 91°
2026-05-01 10:21 41.26423 28.75593 332 ft 13 kts 84°
2026-05-01 10:21 41.26473 28.75660 333 ft 6 kts
2026-05-01 10:21 41.26753 28.75657 331 ft 76 kts 359°
2026-05-01 10:22 41.28554 28.75689 707 ft 157 kts
2026-05-01 10:22 41.30609 28.76007 2499 ft 154 kts
2026-05-01 10:23 41.31688 28.75838 3234 ft 158 kts 359°
2026-05-01 10:23 41.33890 28.75480 4692 ft 162 kts 359°
2026-05-01 10:23 41.35031 28.75485 5188 ft 172 kts 23°
2026-05-01 10:24 41.36928 28.77945 5577 ft 212 kts 42°
2026-05-01 10:24 41.39204 28.80617 6457 ft 232 kts 54°
2026-05-01 10:25 41.40798 28.84595 7351 ft 251 kts 31°
2026-05-01 10:25 41.44156 28.84425 8836 ft 263 kts 331°
2026-05-01 10:26 41.45787 28.83209 9498 ft 272 kts 336°
2026-05-01 10:26 41.47574 28.82257 10125 ft 282 kts 342°
2026-05-01 10:26 41.51648 28.81003 10571 ft 325 kts 351°
2026-05-01 10:27 41.56328 28.80314 11484 ft 348 kts 353°
2026-05-01 10:27 41.60891 28.78452 12929 ft 345 kts 317°
2026-05-01 10:28 41.62432 28.76068 13922 ft 334 kts 297°
2026-05-01 10:28 41.64310 28.70283 15034 ft 344 kts 289°
2026-05-01 10:28 41.65135 28.67316 15635 ft 349 kts 289°
2026-05-01 10:29 41.66839 28.61187 17053 ft 347 kts 283°
2026-05-01 10:29 41.67117 28.57995 17778 ft 348 kts 270°
2026-05-01 10:30 41.67115 28.51384 18619 ft 363 kts 270°
2026-05-01 10:30 41.67179 28.44609 19728 ft 366 kts 270°
2026-05-01 10:31 41.67255 28.37751 20752 ft 371 kts 270°
2026-05-01 10:31 41.67326 28.30862 21793 ft 375 kts 270°
2026-05-01 10:32 41.67392 28.23847 22800 ft 379 kts 270°
2026-05-01 10:32 41.67424 28.20313 23246 ft 382 kts 270°
2026-05-01 10:32 41.67485 28.13160 24114 ft 387 kts 270°
2026-05-01 10:33 41.67558 28.05974 24834 ft 392 kts 272°
2026-05-01 10:33 41.69386 27.99074 25548 ft 404 kts 299°
2026-05-01 10:34 41.70919 27.95907 25912 ft 407 kts 300°
2026-05-01 10:34 41.72489 27.92747 26217 ft 410 kts 300°
2026-05-01 10:34 41.74075 27.89559 26541 ft 412 kts 300°
2026-05-01 10:35 41.77246 27.83104 27192 ft 416 kts 300°
2026-05-01 10:35 41.78806 27.79890 27500 ft 418 kts 300°
2026-05-01 10:35 41.80391 27.76605 27809 ft 421 kts 300°
2026-05-01 10:35 41.81979 27.73306 28082 ft 423 kts 300°
2026-05-01 10:36 41.85173 27.66650 28777 ft 424 kts 300°
2026-05-01 10:36 41.86755 27.63348 29231 ft 423 kts 300°
2026-05-01 10:36 41.88343 27.60031 29638 ft 423 kts 300°
2026-05-01 10:37 41.89934 27.56705 29948 ft 424 kts 300°
2026-05-01 10:37 41.93105 27.50062 30687 ft 421 kts 300°
2026-05-01 10:37 41.94685 27.46746 30997 ft 421 kts 300°
2026-05-01 10:38 41.96243 27.43473 31210 ft 423 kts 300°
2026-05-01 10:38 41.97830 27.40133 31479 ft 424 kts 300°
2026-05-01 10:38 41.99414 27.36798 31825 ft 423 kts 300°
2026-05-01 10:38 42.00990 27.33474 32140 ft 422 kts 300°
2026-05-01 10:39 42.02568 27.30139 32411 ft 422 kts 300°
2026-05-01 10:39 42.04144 27.26811 32687 ft 422 kts 300°
2026-05-01 10:39 42.05720 27.23481 32977 ft 422 kts 300°
2026-05-01 10:39 42.07339 27.20245 33252 ft 423 kts 305°
2026-05-01 10:40 42.09225 27.17192 33551 ft 424 kts 309°
2026-05-01 10:40 42.11219 27.14263 33819 ft 425 kts 310°
2026-05-01 10:40 42.13246 27.11360 34060 ft 425 kts 310°
2026-05-01 10:40 42.15268 27.08448 34252 ft 426 kts 310°
2026-05-01 10:41 42.19290 27.02525 34247 ft 429 kts 309°
2026-05-01 10:42 42.25185 26.93647 34243 ft 421 kts 309°
2026-05-01 10:42 42.29070 26.87753 34250 ft 419 kts 309°
2026-05-01 10:43 42.32938 26.81876 34257 ft 418 kts 309°
2026-05-01 10:43 42.36796 26.76003 34256 ft 418 kts 309°
2026-05-01 10:44 42.40655 26.70118 34266 ft 420 kts 309°
2026-05-01 10:44 42.44509 26.64229 34263 ft 422 kts 309°
2026-05-01 10:45 42.48406 26.58258 34266 ft 424 kts 309°
2026-05-01 10:45 42.52317 26.52260 34265 ft 426 kts 309°
2026-05-01 10:46 42.55768 26.45780 34274 ft 423 kts 297°
2026-05-01 10:46 42.58510 26.38756 34271 ft 424 kts 296°
2026-05-01 10:47 42.61266 26.31667 34263 ft 425 kts 296°
2026-05-01 10:47 42.64043 26.24572 34266 ft 425 kts 297°
2026-05-01 10:48 42.66822 26.17490 34271 ft 424 kts 297°
2026-05-01 10:48 42.69593 26.10417 34292 ft 424 kts 297°
2026-05-01 10:49 42.72342 26.03382 34281 ft 423 kts 297°
2026-05-01 10:49 42.75099 25.96310 34281 ft 423 kts 297°
2026-05-01 10:50 42.77847 25.89241 34294 ft 423 kts 297°
2026-05-01 10:50 42.80590 25.82168 34299 ft 423 kts 297°
2026-05-01 10:51 42.83314 25.75129 34299 ft 423 kts 297°
2026-05-01 10:51 42.86055 25.68026 34307 ft 424 kts 297°
2026-05-01 10:52 42.88798 25.60898 34306 ft 425 kts 297°
2026-05-01 10:52 42.91549 25.53734 34314 ft 427 kts 297°
2026-05-01 10:53 42.94298 25.46557 34313 ft 428 kts 297°
2026-05-01 10:53 42.97034 25.39393 34314 ft 429 kts 297°
2026-05-01 10:54 42.99790 25.32161 34317 ft 429 kts 297°
2026-05-01 10:54 43.02541 25.24920 34321 ft 430 kts 297°
2026-05-01 10:55 43.05273 25.17711 34325 ft 430 kts 297°
2026-05-01 10:55 43.08016 25.10454 34328 ft 429 kts 297°
2026-05-01 10:56 43.10748 25.03206 34331 ft 429 kts 297°
2026-05-01 10:56 43.13426 24.95912 34339 ft 428 kts 295°
2026-05-01 10:57 43.15820 24.88454 34344 ft 428 kts 293°
2026-05-01 10:57 43.18140 24.81012 34344 ft 428 kts 293°
2026-05-01 10:58 43.20484 24.73524 34340 ft 428 kts 294°
2026-05-01 10:58 43.22839 24.66035 34348 ft 427 kts 294°
2026-05-01 10:59 43.25191 24.58550 34359 ft 428 kts 294°
2026-05-01 10:59 43.27543 24.51049 34354 ft 429 kts 294°
2026-05-01 11:00 43.29881 24.43572 34351 ft 430 kts 294°
2026-05-01 11:00 43.32235 24.36020 34350 ft 431 kts 294°
2026-05-01 11:01 43.34589 24.28445 34353 ft 432 kts 294°
2026-05-01 11:01 43.36942 24.20851 34347 ft 433 kts 294°
2026-05-01 11:02 43.39282 24.13279 34344 ft 434 kts 294°
2026-05-01 11:02 43.41635 24.05642 34346 ft 434 kts 294°
2026-05-01 11:03 43.43990 23.97976 34347 ft 435 kts 294°
2026-05-01 11:03 43.46339 23.90306 34347 ft 435 kts 294°
2026-05-01 11:04 43.48683 23.82629 34337 ft 435 kts 294°
2026-05-01 11:04 43.51006 23.74997 34350 ft 435 kts 294°
2026-05-01 11:05 43.53341 23.67308 34350 ft 435 kts 294°
2026-05-01 11:05 43.55669 23.59616 34346 ft 435 kts 294°
2026-05-01 11:06 43.57992 23.51916 34333 ft 435 kts 294°
2026-05-01 11:06 43.60294 23.44264 34350 ft 435 kts 294°
2026-05-01 11:07 43.63766 23.32680 34347 ft 436 kts 294°
2026-05-01 11:07 43.66076 23.24942 34346 ft 436 kts 294°
2026-05-01 11:08 43.68385 23.17186 34340 ft 436 kts 294°
2026-05-01 11:09 43.71823 23.05593 34339 ft 437 kts 294°
2026-05-01 11:09 43.74125 22.97801 34336 ft 438 kts 294°
2026-05-01 11:10 43.77570 22.86090 34330 ft 438 kts 294°
2026-05-01 11:10 43.79863 22.78266 34326 ft 439 kts 294°
2026-05-01 11:11 43.82138 22.70482 34330 ft 439 kts 294°
2026-05-01 11:11 43.84421 22.62640 34326 ft 439 kts 294°
2026-05-01 11:12 43.86699 22.54791 34318 ft 439 kts 294°
2026-05-01 11:12 43.88972 22.46937 34327 ft 439 kts 294°
2026-05-01 11:13 43.91416 22.39257 34319 ft 437 kts 303°
2026-05-01 11:13 43.95117 22.32636 34330 ft 434 kts 313°
2026-05-01 11:14 43.99093 22.26331 34325 ft 434 kts 313°
2026-05-01 11:14 44.03051 22.20003 34325 ft 434 kts 313°
2026-05-01 11:15 44.06981 22.13643 34320 ft 434 kts 312°
2026-05-01 11:15 44.10868 22.07310 34323 ft 433 kts 312°
2026-05-01 11:16 44.14772 22.00928 34310 ft 433 kts 312°
2026-05-01 11:16 44.18674 21.94535 34317 ft 433 kts 312°
2026-05-01 11:17 44.22569 21.88143 34318 ft 433 kts 312°
2026-05-01 11:17 44.26435 21.81784 34313 ft 433 kts 312°
2026-05-01 11:18 44.30324 21.75372 34307 ft 433 kts 313°
2026-05-01 11:18 44.34209 21.68953 34313 ft 433 kts 313°
2026-05-01 11:19 44.38097 21.62513 34322 ft 434 kts 313°
2026-05-01 11:19 44.41991 21.56051 34305 ft 435 kts 313°
2026-05-01 11:20 44.45865 21.49606 34319 ft 435 kts 313°
2026-05-01 11:20 44.49762 21.43108 34317 ft 436 kts 313°
2026-05-01 11:21 44.53663 21.36587 34318 ft 437 kts 313°
2026-05-01 11:21 44.57570 21.30043 34323 ft 438 kts 313°
2026-05-01 11:22 44.61451 21.23527 34315 ft 438 kts 313°
2026-05-01 11:22 44.65358 21.16951 34308 ft 439 kts 314°
2026-05-01 11:23 44.69269 21.10355 34315 ft 439 kts 314°
2026-05-01 11:23 44.73173 21.03754 34317 ft 439 kts 313°
2026-05-01 11:24 44.77075 20.97143 34315 ft 439 kts 313°
2026-05-01 11:25 44.82870 20.87231 34306 ft 439 kts 314°
2026-05-01 11:25 44.88695 20.77285 34315 ft 438 kts 313°
2026-05-01 11:26 44.94503 20.67345 34319 ft 438 kts 313°
2026-05-01 11:27 44.98346 20.60751 34322 ft 437 kts 314°
2026-05-01 11:27 45.02202 20.54117 34318 ft 437 kts 314°
2026-05-01 11:28 45.06059 20.47467 34325 ft 437 kts 313°
2026-05-01 11:28 45.09915 20.40802 34326 ft 438 kts 313°
2026-05-01 11:29 45.15666 20.30833 34321 ft 438 kts 314°
2026-05-01 11:30 45.21437 20.20792 34332 ft 439 kts 314°
2026-05-01 11:30 45.25291 20.14070 34333 ft 439 kts 314°
2026-05-01 11:31 45.29119 20.07374 34304 ft 440 kts 314°
2026-05-01 11:31 45.32970 20.00622 34330 ft 440 kts 315°
2026-05-01 11:32 45.36825 19.93848 34338 ft 441 kts 315°
2026-05-01 11:32 45.40677 19.87064 34336 ft 441 kts 314°
2026-05-01 11:33 45.44509 19.80296 34334 ft 442 kts 315°
2026-05-01 11:33 45.48360 19.73478 34333 ft 442 kts 315°
2026-05-01 11:34 45.52213 19.66641 34336 ft 442 kts 315°
2026-05-01 11:34 45.56060 19.59800 34341 ft 442 kts 315°
2026-05-01 11:35 45.59907 19.52941 34342 ft 443 kts 315°
2026-05-01 11:35 45.63757 19.46059 34339 ft 443 kts 315°
2026-05-01 11:36 45.67574 19.39221 34343 ft 443 kts 315°
2026-05-01 11:36 45.71416 19.32321 34341 ft 443 kts 315°
2026-05-01 11:37 45.75251 19.25416 34338 ft 443 kts 316°
2026-05-01 11:37 45.79051 19.18561 34320 ft 442 kts 316°
2026-05-01 11:38 45.82873 19.11648 34337 ft 442 kts 316°
2026-05-01 11:38 45.86686 19.04739 34357 ft 442 kts 316°
2026-05-01 11:39 45.90505 18.97800 34347 ft 443 kts 316°
2026-05-01 11:39 45.93833 18.90317 34350 ft 459 kts 300°
2026-05-01 11:40 45.95883 18.81525 34346 ft 466 kts 294°
2026-05-01 11:40 45.97779 18.72602 34356 ft 467 kts 294°
2026-05-01 11:41 45.99748 18.63686 34358 ft 468 kts 296°
2026-05-01 11:41 46.01749 18.54758 34360 ft 470 kts 296°
2026-05-01 11:42 46.03709 18.45848 34343 ft 471 kts 296°
2026-05-01 11:42 46.05682 18.36852 34350 ft 472 kts 296°
2026-05-01 11:43 46.07658 18.27821 34350 ft 473 kts 295°
2026-05-01 11:43 46.09629 18.18772 34346 ft 474 kts 295°
2026-05-01 11:44 46.12908 18.05514 34349 ft 461 kts 308°
2026-05-01 11:44 46.16439 17.97998 34346 ft 451 kts 316°
2026-05-01 11:45 46.20107 17.90665 34352 ft 451 kts 315°
2026-05-01 11:45 46.23746 17.83276 34316 ft 452 kts 315°
2026-05-01 11:46 46.27331 17.75909 34355 ft 450 kts 315°
2026-05-01 11:46 46.30925 17.68495 34359 ft 451 kts 315°
2026-05-01 11:47 46.34528 17.61046 34355 ft 452 kts 315°
2026-05-01 11:47 46.38125 17.53587 34356 ft 452 kts 315°
2026-05-01 11:48 46.41691 17.46172 34358 ft 451 kts 314°
2026-05-01 11:48 46.45277 17.38697 34357 ft 452 kts 314°
2026-05-01 11:49 46.48856 17.31217 34358 ft 451 kts 314°
2026-05-01 11:49 46.52427 17.23733 34370 ft 451 kts 314°
2026-05-01 11:50 46.55988 17.16249 34348 ft 450 kts 314°
2026-05-01 11:50 46.59504 17.08842 34359 ft 449 kts 314°
2026-05-01 11:51 46.63041 17.01370 34380 ft 448 kts 314°
2026-05-01 11:51 46.66571 16.93893 34377 ft 448 kts 314°
2026-05-01 11:52 46.70091 16.86417 34355 ft 448 kts 313°
2026-05-01 11:52 46.73571 16.79005 34359 ft 447 kts 313°
2026-05-01 11:53 46.77075 16.71526 34365 ft 446 kts 313°
2026-05-01 11:53 46.80571 16.64040 34369 ft 446 kts 313°
2026-05-01 11:54 46.84058 16.56554 34364 ft 446 kts 313°
2026-05-01 11:54 46.87518 16.49107 34344 ft 445 kts 312°
2026-05-01 11:55 46.90984 16.41623 34357 ft 444 kts 312°
2026-05-01 11:55 46.94439 16.34145 34370 ft 444 kts 312°
2026-05-01 11:56 46.97889 16.26662 34364 ft 444 kts 312°
2026-05-01 11:56 47.01055 16.18965 34369 ft 453 kts 302°
2026-05-01 11:57 47.03209 16.11898 34368 ft 454 kts 301°
2026-05-01 11:57 47.06163 16.02049 34375 ft 454 kts 301°
2026-05-01 11:58 47.08743 15.93582 34367 ft 454 kts 302°
2026-05-01 11:59 47.12613 15.80969 34348 ft 454 kts 301°
2026-05-01 11:59 47.15192 15.72522 34362 ft 453 kts 301°
2026-05-01 12:00 47.19042 15.59854 34376 ft 452 kts 301°
2026-05-01 12:01 47.22858 15.47265 34377 ft 450 kts 301°
2026-05-01 12:01 47.25397 15.38854 34369 ft 449 kts 301°
2026-05-01 12:02 47.27923 15.30454 34364 ft 448 kts 300°
2026-05-01 12:02 47.30439 15.22060 34369 ft 449 kts 300°
2026-05-01 12:03 47.32958 15.13635 34365 ft 449 kts 300°
2026-05-01 12:03 47.35454 15.05254 34363 ft 449 kts 300°
2026-05-01 12:04 47.37955 14.96819 34355 ft 449 kts 300°
2026-05-01 12:04 47.40452 14.88374 34340 ft 449 kts 300°
2026-05-01 12:05 47.42516 14.81364 34369 ft 447 kts 300°
2026-05-01 12:05 47.46626 14.67363 34372 ft 447 kts 299°
2026-05-01 12:06 47.49097 14.58911 34361 ft 448 kts 299°
2026-05-01 12:06 47.51141 14.51893 34396 ft 448 kts 299°
2026-05-01 12:07 47.53612 14.43384 34381 ft 451 kts 299°
2026-05-01 12:07 47.56082 14.34848 34343 ft 452 kts 298°
2026-05-01 12:08 47.58549 14.26286 34364 ft 451 kts 298°
2026-05-01 12:08 47.60974 14.17820 34343 ft 448 kts 298°
2026-05-01 12:09 47.63392 14.09362 34395 ft 445 kts 298°
2026-05-01 12:09 47.65813 14.00894 34384 ft 445 kts 298°
2026-05-01 12:10 47.69418 13.88214 34359 ft 445 kts 298°
2026-05-01 12:11 47.72992 13.75568 34366 ft 446 kts 298°
2026-05-01 12:11 47.75386 13.67057 34357 ft 446 kts 298°
2026-05-01 12:12 47.77774 13.58538 34334 ft 447 kts 297°
2026-05-01 12:12 47.80157 13.50005 34359 ft 447 kts 297°
2026-05-01 12:13 47.82516 13.41527 34356 ft 446 kts 297°
2026-05-01 12:13 47.84881 13.33001 34355 ft 445 kts 297°
2026-05-01 12:14 47.87234 13.24483 34359 ft 444 kts 297°
2026-05-01 12:14 47.89580 13.15967 34357 ft 444 kts 296°
2026-05-01 12:15 47.91902 13.07506 34354 ft 444 kts 296°
2026-05-01 12:15 47.94233 12.98981 34359 ft 444 kts 296°
2026-05-01 12:16 47.96554 12.90462 34360 ft 444 kts 296°
2026-05-01 12:16 47.98872 12.81926 34351 ft 444 kts 296°
2026-05-01 12:17 48.01185 12.73384 34355 ft 444 kts 296°
2026-05-01 12:17 48.03479 12.64885 34355 ft 444 kts 296°
2026-05-01 12:18 48.05779 12.56325 34363 ft 444 kts 296°
2026-05-01 12:18 48.07879 12.47607 34358 ft 446 kts 292°
2026-05-01 12:19 48.09888 12.38828 34357 ft 446 kts 292°
2026-05-01 12:19 48.11937 12.30069 34357 ft 446 kts 293°
2026-05-01 12:20 48.13976 12.21363 34347 ft 446 kts 292°
2026-05-01 12:20 48.15929 12.12533 34366 ft 449 kts 287°
2026-05-01 12:21 48.16700 12.03190 34334 ft 454 kts 277°
2026-05-01 12:21 48.17217 11.93782 34357 ft 452 kts 277°
2026-05-01 12:22 48.17807 11.84414 34359 ft 451 kts 278°
2026-05-01 12:22 48.18195 11.79900 34314 ft 435 kts 285°
2026-05-01 12:22 48.18865 11.75564 34273 ft 422 kts 287°
2026-05-01 12:23 48.19590 11.71338 33965 ft 415 kts 288°
2026-05-01 12:23 48.20351 11.67198 33588 ft 409 kts 292°
2026-05-01 12:23 48.21195 11.63168 33263 ft 405 kts 290°
2026-05-01 12:23 48.21888 11.59085 32886 ft 403 kts 286°
2026-05-01 12:24 48.22495 11.55001 32531 ft 400 kts 286°
2026-05-01 12:24 48.23104 11.50953 32155 ft 397 kts 286°
2026-05-01 12:24 48.23734 11.46946 31807 ft 393 kts 287°
2026-05-01 12:24 48.24377 11.42974 31464 ft 390 kts 287°
2026-05-01 12:25 48.25012 11.39081 31131 ft 388 kts 287°
2026-05-01 12:25 48.26730 11.31547 30454 ft 376 kts 303°
2026-05-01 12:25 48.28152 11.28308 30066 ft 369 kts 313°
2026-05-01 12:26 48.29868 11.25505 29743 ft 361 kts 317°
2026-05-01 12:26 48.33366 11.20175 29024 ft 354 kts 318°
2026-05-01 12:26 48.35090 11.17544 28681 ft 351 kts 317°
2026-05-01 12:27 48.36764 11.14973 28346 ft 348 kts 317°
2026-05-01 12:27 48.40123 11.09779 27687 ft 346 kts 317°
2026-05-01 12:28 48.43665 11.04289 27024 ft 388 kts 317°
2026-05-01 12:28 48.45596 11.01287 26633 ft 410 kts 317°
2026-05-01 12:28 48.49709 10.94864 25782 ft 430 kts 316°
2026-05-01 12:29 48.51760 10.91599 25365 ft 428 kts 316°
2026-05-01 12:29 48.53768 10.88371 24957 ft 426 kts 316°
2026-05-01 12:29 48.57807 10.81886 24138 ft 422 kts 315°
2026-05-01 12:30 48.61836 10.75451 23226 ft 420 kts 316°
2026-05-01 12:30 48.63840 10.72262 22804 ft 418 kts 316°
2026-05-01 12:30 48.65836 10.69077 22385 ft 416 kts 316°
2026-05-01 12:31 48.67834 10.65933 21963 ft 414 kts 316°
2026-05-01 12:31 48.69812 10.62846 21553 ft 413 kts 316°
2026-05-01 12:31 48.71676 10.59537 21132 ft 416 kts 303°
2026-05-01 12:31 48.72724 10.55463 20756 ft 418 kts 283°
2026-05-01 12:32 48.72902 10.51067 20363 ft 420 kts 265°
2026-05-01 12:32 48.72144 10.42322 19588 ft 418 kts 262°
2026-05-01 12:32 48.71744 10.37976 19197 ft 415 kts 262°
2026-05-01 12:33 48.71360 10.33659 18797 ft 411 kts 262°
2026-05-01 12:33 48.70998 10.29438 18367 ft 409 kts 263°
2026-05-01 12:33 48.70639 10.25180 17947 ft 408 kts 263°
2026-05-01 12:33 48.70285 10.20931 17541 ft 405 kts 263°
2026-05-01 12:34 48.69933 10.16711 17156 ft 402 kts 263°
2026-05-01 12:34 48.69582 10.12529 16764 ft 400 kts 263°
2026-05-01 12:34 48.69227 10.08348 16377 ft 399 kts 263°
2026-05-01 12:34 48.68916 10.04198 16005 ft 396 kts 264°
2026-05-01 12:35 48.68707 10.00064 15638 ft 392 kts 266°
2026-05-01 12:35 48.68536 9.95967 15265 ft 389 kts 266°
2026-05-01 12:35 48.68370 9.91901 14874 ft 388 kts 266°
2026-05-01 12:35 48.68196 9.87824 14510 ft 387 kts 266°
2026-05-01 12:36 48.68016 9.83829 14141 ft 385 kts 265°
2026-05-01 12:36 48.67830 9.79817 13743 ft 381 kts 265°
2026-05-01 12:36 48.67641 9.75837 13350 ft 377 kts 265°
2026-05-01 12:36 48.67451 9.71895 12976 ft 375 kts 265°
2026-05-01 12:37 48.67259 9.67986 12609 ft 373 kts 265°
2026-05-01 12:37 48.67187 9.64071 12198 ft 373 kts 272°
2026-05-01 12:37 48.67391 9.60177 11813 ft 371 kts 275°
2026-05-01 12:37 48.67681 9.56312 11466 ft 369 kts 275°
2026-05-01 12:38 48.67972 9.52473 11120 ft 368 kts 275°
2026-05-01 12:38 48.68244 9.48638 10756 ft 366 kts 274°
2026-05-01 12:38 48.68488 9.44878 10422 ft 361 kts 274°
2026-05-01 12:38 48.68721 9.41148 10266 ft 352 kts 274°
2026-05-01 12:39 48.68945 9.37460 9919 ft 352 kts 273°
2026-05-01 12:39 48.69163 9.33773 9592 ft 351 kts 274°
2026-05-01 12:39 48.69377 9.30109 9270 ft 350 kts 273°
2026-05-01 12:39 48.69592 9.26447 8963 ft 349 kts 273°
2026-05-01 12:40 48.69739 9.22801 8605 ft 345 kts 269°
2026-05-01 12:40 48.69768 9.19248 8231 ft 340 kts 268°
2026-05-01 12:40 48.69776 9.15700 7911 ft 335 kts 268°
2026-05-01 12:40 48.69782 9.12197 7581 ft 331 kts 268°
2026-05-01 12:41 48.69792 9.08771 7235 ft 320 kts 268°
2026-05-01 12:41 48.69808 9.05472 6920 ft 307 kts 268°
2026-05-01 12:41 48.69828 9.02310 6719 ft 292 kts 268°
2026-05-01 12:41 48.69847 8.99310 6579 ft 278 kts 268°
2026-05-01 12:42 48.69864 8.96433 6461 ft 270 kts 267°
2026-05-01 12:42 48.69877 8.93621 6357 ft 265 kts 266°
2026-05-01 12:42 48.69412 8.90986 5959 ft 269 kts 232°
2026-05-01 12:42 48.67996 8.89243 5636 ft 265 kts 198°
2026-05-01 12:43 48.66196 8.89058 5293 ft 260 kts 163°
2026-05-01 12:43 48.64707 8.90478 5079 ft 256 kts 128°
2026-05-01 12:43 48.64058 8.92913 4892 ft 251 kts 95°
2026-05-01 12:43 48.64175 8.95488 4594 ft 241 kts 84°
2026-05-01 12:44 48.64458 8.97899 4326 ft 227 kts 79°
2026-05-01 12:44 48.64841 9.00163 4003 ft 217 kts 78°
2026-05-01 12:44 48.65627 9.04343 3458 ft 194 kts 76°
2026-05-01 12:45 48.66344 9.08000 2995 ft 175 kts 74°
2026-05-01 12:45 48.66664 9.09742 2759 ft 167 kts 77°
2026-05-01 12:45 48.66950 9.11355 2560 ft 153 kts 75°
2026-05-01 12:46 48.67239 9.12897 2362 ft 148 kts 77°
2026-05-01 12:46 48.67517 9.14375 2148 ft 146 kts 75°
2026-05-01 12:46 48.67790 9.15840 1953 ft 147 kts 73°
2026-05-01 12:46 48.68053 9.17305 1831 ft 144 kts 76°
2026-05-01 12:47 48.68330 9.18802 1560 ft 148 kts 72°
2026-05-01 12:47 48.68617 9.20234 1344 ft 141 kts 74°
2026-05-01 12:47 48.68870 9.21591 1254 ft 118 kts 73°
2026-05-01 12:47 48.69055 9.22564 1225 ft 66 kts 73°
2026-05-01 12:48 48.69162 9.22939 1217 ft 33 kts 51°
2026-05-01 12:48 48.69289 9.23136 1217 ft 11 kts 38°
2026-05-01 12:48 48.69338 9.23159 1220 ft 2 kts 358°
2026-05-01 12:48 48.69340 9.23159 1220 ft 0 kts 358°
2026-05-01 12:49 48.69348 9.23158 1220 ft 5 kts 354°
2026-05-01 12:49 48.69403 9.23113 1223 ft 13 kts 306°
2026-05-01 12:50 48.69399 9.22986 1225 ft 12 kts 253°
2026-05-01 12:50 48.69377 9.22868 1227 ft 12 kts 253°
2026-05-01 12:50 48.69356 9.22754 1230 ft 11 kts 256°
2026-05-01 12:50 48.69343 9.22676 1231 ft 7 kts 255°
2026-05-01 12:51 48.69329 9.22609 1233 ft 7 kts 252°
2026-05-01 12:51 48.69316 9.22544 1237 ft 6 kts 251°
2026-05-01 12:51 48.69288 9.22419 1238 ft 6 kts 253°
2026-05-01 12:52 48.69279 9.22356 1236 ft 6 kts 257°
2026-05-01 12:52 48.69256 9.22234 1246 ft 6 kts 253°
2026-05-01 12:52 48.69243 9.22163 1252 ft 8 kts 255°
2026-05-01 12:53 48.69191 9.21886 1258 ft 19 kts 254°
2026-05-01 12:53 48.69151 9.21673 1254 ft 23 kts 254°
2026-05-01 12:53 48.69103 9.21420 1268 ft 27 kts 255°
2026-05-01 12:54 48.69049 9.21141 1268 ft 29 kts 253°
2026-05-01 12:54 48.68927 9.20500 1283 ft 34 kts 254°
2026-05-01 12:54 48.68859 9.20148 1291 ft 34 kts 254°
2026-05-01 12:55 48.68884 9.19851 1302 ft 13 kts 295°
2026-05-01 12:55 48.68873 9.19732 1306 ft 10 kts 255°
2026-05-01 12:55 48.68873 9.19681 1308 ft 5 kts 306°
2026-05-01 12:56 48.68898 9.19665 1310 ft 3 kts 344°
2026-05-01 12:56 48.68916 9.19656 1311 ft 3 kts 342°
2026-05-01 12:56 48.68929 9.19651 1312 ft 2 kts 343°
2026-05-01 12:56 48.68940 9.19646 1330 ft 1 kts 344°
2026-05-01 12:57 48.68940 9.19645 1331 ft 1 kts 344°
2026-05-01 12:57 48.68941 9.19645 1332 ft 0 kts 344°